Page, AZ

11:55 AM MDT on September 30, 2016 (GMT -0600)
Page Municipal

Weather History for KPGA - December, 2011

Change the Weather History Date:

Saturday, December 31, 2011

  Actual Average Record
Temperature  
Mean Temperature 46 °F -  
Max Temperature 59 °F 40 °F 59 °F (2011)
Min Temperature 34 °F 23 °F 7 °F (1967)
Degree Days  
Heating Degree Days 18    
Moisture  
Dew Point 25 °F    
Average Humidity 47    
Maximum Humidity 75    
Minimum Humidity 23    
Precipitation  
Precipitation 0.00 in - - ()
Sea Level Pressure  
Sea Level Pressure 30.18 in    
Wind  
Wind Speed 3 mph (East)    
Max Wind Speed 8 mph    
Max Gust Speed -    
Visibility 9 miles    
Events      
Averages and records for this station are not official NWS values.
T = Trace of Precipitation, MM = Missing Value Source: NWS Daily Summary

Daily Weather History Graph

Daily Weather History Graph

Search for Another Location

Airport or City:

Trip Planner

Search our weather history database for the weather conditions in past years. The results will help you decide how hot, cold, wet, or windy it might be!

Date:

Astronomy

Dec. 31, 2011 Rise Set
Actual Time 7:38 AM MST 5:19 PM MST
Civil Twilight 7:09 AM MST 5:47 PM MST
Nautical Twilight 6:37 AM MST 6:20 PM MST
Astronomical Twilight 6:05 AM MST 6:51 PM MST
Moon 11:36 AM MST (12/31) No Moon Set
Length of Visible Light 10h 38m
Length of Day
9h 40m
Waxing Crescent, 45% of the Moon is Illuminated
Dec 31
Waxing Crescent
Dec 31
First Quarter
Jan 9
Full
Jan 16
Last Quarter
Jan 23
New

Hourly Weather History & Observations

Time (MST) Temp. Windchill Dew Point Humidity Pressure Visibility Wind Dir Wind Speed Gust Speed Precip Events Conditions
12:53 AM 41.0 °F 39.0 °F 28.0 °F 60% 30.02 in 9.0 mi Variable 3.5 mph - N/A   Clear
1:53 AM 37.9 °F - 28.0 °F 68% 30.02 in 10.0 mi Calm Calm - N/A   Clear
2:53 AM 37.4 °F - 26.6 °F 65% 30.04 in 10.0 mi Calm Calm - N/A   Clear
4:53 AM 37.4 °F - 28.4 °F 70% 30.05 in 10.0 mi Calm Calm - N/A   Clear
5:53 AM 34.0 °F 31.0 °F 27.0 °F 75% 30.06 in 9.0 mi West 3.5 mph - N/A   Clear
6:53 AM 36.0 °F 29.6 °F 25.0 °F 64% 30.08 in 10.0 mi East 8.1 mph - N/A   Clear
7:53 AM 37.0 °F - 26.1 °F 65% 30.10 in 6.0 mi Calm Calm - N/A   Haze
8:53 AM 39.9 °F 37.8 °F 28.9 °F 65% 30.14 in 10.0 mi East 3.5 mph - N/A   Clear
9:53 AM 51.1 °F - 25.0 °F 36% 30.14 in 10.0 mi Calm Calm - N/A   Clear
10:53 AM 50.0 °F - 27.0 °F 41% 30.16 in 10.0 mi Calm Calm - N/A   Clear
11:53 AM 54.0 °F - 25.0 °F 33% 30.14 in 10.0 mi WSW 3.5 mph - N/A   Clear
12:53 PM 55.0 °F - 30.0 °F 38% 30.12 in 10.0 mi NE 6.9 mph - N/A   Clear
1:53 PM 57.9 °F - 24.1 °F 27% 30.13 in 10.0 mi NE 5.8 mph - N/A   Clear
2:53 PM 59.0 °F - 21.0 °F 23% 30.15 in 10.0 mi NE 6.9 mph - N/A   Clear
3:53 PM 55.0 °F - 28.0 °F 35% 30.20 in 10.0 mi NE 5.8 mph - N/A   Clear
4:53 PM 52.0 °F - 24.1 °F 34% 30.22 in 10.0 mi ENE 5.8 mph - N/A   Clear
5:53 PM 50.0 °F - 21.0 °F 32% 30.25 in 10.0 mi East 3.5 mph - N/A   Clear
6:53 PM 46.9 °F - 19.9 °F 34% 30.29 in 10.0 mi Calm Calm - N/A   Clear
7:53 PM 42.1 °F 40.2 °F 21.9 °F 45% 30.33 in 10.0 mi SE 3.5 mph - N/A   Clear
8:53 PM 43.0 °F - 21.0 °F 42% 30.34 in 10.0 mi Calm Calm - N/A   Clear
9:53 PM 42.8 °F 40.1 °F 21.2 °F 42% 30.37 in 8.0 mi South 4.6 mph - N/A   Clear
10:53 PM 41.0 °F 39.0 °F 19.9 °F 43% 30.35 in 8.0 mi WSW 3.5 mph - N/A   Clear
11:53 PM 39.0 °F - 21.9 °F 50% 30.35 in 4.0 mi Calm Calm - N/A   Haze